Location: Cudham
(51.3000°N, 0.0667°E)
Time: 17:14:57
(UTC+00:00)

USA 229 DEB - Pass Details

Date: 20 April 2026
Orbit: 844 x 1364 km, 63.4° (Epoch: 10 January)

Event Time Altitude Azimuth Distance (km) Brightness Sun altitude
Rises 20:55:23 0° 296° (WNW) 3,737 8.0 -15.5°
Reaches altitude 10° 20:58:12 10° 307° (NW) 2,864 7.3 -15.9°
Maximum altitude 21:04:15 32° 9° (N) 1,848 5.3 -16.5°
Drops below altitude 10° 21:11:00 10° 71° (ENE) 3,202 6.0 -17.3°
Sets 21:14:20 0° 81° (E) 4,242 6.5 -17.6°
